Date,TemperatureHighF,TemperatureAvgF,TemperatureLowF,DewpointHighF,DewpointAvgF,DewpointLowF,HumidityHigh,HumidityAvg,HumidityLow,PressureMaxIn,PressureMinIn,WindSpeedMaxMPH,WindSpeedAvgMPH,GustSpeedMaxMPH,PrecipitationSumIn
2014-1-1,79,78,77,-100,-100,-100,48,41,33,30.05,29.91,0,-999,0,0.00
2014-1-2,79,77,76,-100,-100,-100,42,39,31,29.91,29.80,0,-999,0,0.00
2014-1-3,79,78,77,-100,-100,-100,45,40,35,29.94,29.88,0,-999,0,0.00
2014-1-4,79,78,78,-100,-100,-100,46,41,38,29.99,29.59,0,-999,0,0.00
2014-1-5,80,78,77,-100,-100,-100,48,41,33,29.96,29.55,0,-999,0,0.00
2014-1-6,79,78,78,-100,-100,-100,44,40,35,30.04,29.95,0,-999,0,0.00
2014-1-7,79,78,78,-100,-100,-100,41,39,33,30.11,29.94,0,-999,0,0.00
2014-1-8,79,78,78,-100,-100,-100,45,42,39,30.14,30.06,0,-999,0,0.00
2014-1-9,80,79,78,-100,-100,-100,49,43,36,30.12,29.70,0,-999,0,0.00
2014-1-10,80,79,79,-100,-100,-100,49,44,36,30.06,29.72,0,-999,0,0.00
2014-1-11,79,79,78,-100,-100,-100,45,42,33,30.06,29.93,0,-999,0,0.00
2014-1-12,79,78,78,-100,-100,-100,43,40,29,30.21,30.05,0,-999,0,0.00
2014-1-13,79,78,77,-100,-100,-100,39,37,30,30.10,29.87,0,-999,0,0.00
2014-1-14,79,78,78,-100,-100,-100,41,39,38,29.88,29.67,0,-999,0,0.00
2014-1-15,79,78,77,-100,-100,-100,43,38,31,29.89,29.73,0,-999,0,0.00
2014-1-16,79,78,77,-100,-100,-100,41,37,30,29.87,29.67,0,-999,0,0.00
2014-1-17,79,78,78,-100,-100,-100,44,40,37,29.78,29.68,0,-999,0,0.00
2014-1-18,78,78,77,-100,-100,-100,40,38,37,29.80,29.67,0,-999,0,0.00
2014-1-19,78,77,77,-100,-100,-100,42,37,37,29.67,29.55,0,-999,0,0.00
2014-1-20,79,78,78,-100,-100,-100,46,42,37,29.65,29.51,0,-999,0,0.00
2014-1-21,80,79,78,-100,-100,-100,43,41,30,29.88,29.65,0,-999,0,0.00
2014-1-22,79,79,78,-100,-100,-100,42,40,32,30.00,29.87,0,-999,0,0.00
2014-1-23,80,79,77,-100,-100,-100,45,39,29,30.07,29.94,0,-999,0,0.00
2014-1-24,79,79,77,-100,-100,-100,42,38,28,30.05,29.88,0,-999,0,0.00
2014-1-25,79,78,74,-100,-100,-100,46,38,21,30.13,29.97,0,-999,0,0.00
2014-1-26,78,78,76,-100,-100,-100,40,37,25,29.96,29.65,0,-999,0,0.00
2014-1-27,79,78,77,-100,-100,-100,44,38,30,29.65,29.50,0,-999,0,0.00
2014-1-28,79,78,77,-100,-100,-100,43,39,34,29.67,29.62,0,-999,0,0.00
2014-1-29,79,78,77,-100,-100,-100,42,37,28,29.82,29.62,0,-999,0,0.00
2014-1-30,79,78,77,-100,-100,-100,43,38,29,29.94,29.81,0,-999,0,0.00
2014-1-31,79,78,77,-100,-100,-100,45,40,33,29.92,29.79,0,-999,0,0.00
2014-2-1,79,78,77,-100,-100,-100,48,40,30,29.88,29.72,0,-999,0,0.00
2014-2-2,79,78,78,-100,-100,-100,44,41,38,30.12,29.84,0,-999,0,0.00
2014-2-3,79,78,77,-100,-100,-100,43,40,31,30.12,29.94,0,-999,0,0.00
2014-2-4,79,78,78,-100,-100,-100,41,39,31,29.99,29.92,0,-999,0,0.00
2014-2-5,80,78,77,-100,-100,-100,42,38,28,29.92,29.66,0,-999,0,0.00
2014-2-6,79,79,78,-100,-100,-100,44,37,30,29.84,29.70,0,-999,0,0.00
2014-2-7,80,79,78,-100,-100,-100,43,39,32,29.70,29.57,0,-999,0,0.00
2014-2-8,80,79,79,-100,-100,-100,44,41,36,29.73,29.44,0,-999,0,0.00
2014-2-9,79,79,79,-100,-100,-100,42,40,36,29.61,29.44,0,-999,0,0.00
2014-2-10,80,79,78,-100,-100,-100,44,39,32,29.67,29.44,0,-999,0,0.00
2014-2-11,80,79,78,-100,-100,-100,44,40,30,29.76,29.48,0,-999,0,0.00
2014-2-12,79,79,78,-100,-100,-100,43,38,36,29.83,29.74,0,-999,0,0.00
2014-2-13,79,79,78,-100,-100,-100,45,41,39,29.79,29.40,0,-999,0,0.00
2014-2-14,80,79,77,-100,-100,-100,43,39,29,29.86,29.47,0,-999,0,0.00
2014-2-15,80,79,79,-100,-100,-100,47,40,32,29.80,29.65,0,-999,0,0.00
2014-2-16,80,79,77,-100,-100,-100,45,40,30,29.93,29.74,0,-999,0,0.00
2014-2-17,80,79,78,-100,-100,-100,44,42,36,30.09,29.93,0,-999,0,0.00
2014-2-18,80,79,78,-100,-100,-100,45,40,33,30.13,29.93,0,-999,0,0.00
2014-2-19,80,79,78,-100,-100,-100,43,39,32,29.96,29.89,0,-999,0,0.00
2014-2-20,80,79,78,-100,-100,-100,44,40,31,29.98,29.86,0,-999,0,0.00
2014-2-21,79,78,78,-100,-100,-100,42,38,32,29.88,29.76,0,-999,0,0.00
2014-2-22,79,79,79,-100,-100,-100,43,40,36,30.12,29.88,0,-999,0,0.00
2014-2-23,80,79,77,-100,-100,-100,44,40,28,30.26,30.13,0,-999,0,0.00
2014-2-24,80,79,79,-100,-100,-100,44,40,33,30.24,30.05,0,-999,0,0.00
2014-2-25,79,79,78,-100,-100,-100,44,40,36,30.07,29.96,0,-999,0,0.00
2014-2-26,79,79,78,-100,-100,-100,44,41,34,30.09,30.00,0,-999,0,0.00
2014-2-27,80,79,79,-100,-100,-100,44,41,36,30.11,29.88,0,-999,0,0.00
2014-2-28,80,79,78,-100,-100,-100,47,40,33,29.87,29.63,0,-999,0,0.00
2014-3-1,80,79,78,-100,-100,-100,47,42,41,29.67,29.57,0,-999,0,0.00
2014-3-2,80,79,79,-100,-100,-100,49,42,36,29.67,29.57,0,-999,0,0.00
2014-3-3,80,79,79,-100,-100,-100,46,43,40,29.57,29.39,0,-999,0,0.00
2014-3-4,79,79,78,-100,-100,-100,46,42,38,29.76,29.46,0,-999,0,0.00
2014-3-5,79,78,78,-100,-100,-100,44,43,39,30.19,29.76,0,-999,0,0.00
2014-3-6,79,78,78,-100,-100,-100,47,44,39,30.39,30.19,0,-999,0,0.00
2014-3-7,79,78,77,-100,-100,-100,44,42,30,30.38,30.26,0,-999,0,0.00
2014-3-8,79,78,78,-100,-100,-100,42,41,37,30.53,30.32,0,-999,0,0.00
2014-3-9,79,79,78,-100,-100,-100,46,42,37,30.55,30.42,0,-999,0,0.00
2014-3-10,79,79,78,-100,-100,-100,42,41,38,30.42,30.23,0,-999,0,0.00
2014-3-11,79,79,78,-100,-100,-100,43,38,27,30.45,30.27,0,-999,0,0.00
2014-3-12,79,79,78,-100,-100,-100,42,37,32,30.51,30.41,0,-999,0,0.00
2014-3-13,79,79,78,-100,-100,-100,41,38,36,30.42,30.27,0,-999,0,0.00
2014-3-14,80,79,79,-100,-100,-100,42,39,35,30.30,30.01,0,-999,0,0.00
2014-3-15,80,79,79,-100,-100,-100,42,40,33,30.00,29.80,0,-999,0,0.00
2014-3-16,80,79,78,-100,-100,-100,43,39,36,29.93,29.72,0,-999,0,0.00
2014-3-17,80,79,78,-100,-100,-100,42,40,36,30.06,29.92,0,-999,0,0.00
2014-3-18,80,79,78,-100,-100,-100,47,40,36,30.04,29.83,0,-999,0,0.00
2014-3-19,79,79,79,-100,-100,-100,45,41,37,30.19,29.85,0,-999,0,0.00
2014-3-20,80,79,78,-100,-100,-100,42,39,35,30.19,29.95,0,-999,0,0.00
2014-3-21,80,79,79,-100,-100,-100,41,38,35,29.95,29.78,0,-999,0,0.00
2014-3-22,80,79,79,-100,-100,-100,38,38,38,29.83,29.56,0,-999,0,0.00
2014-3-23,80,79,79,-100,-100,-100,38,38,37,29.71,29.62,0,-999,0,0.00
2014-3-24,80,79,79,-100,-100,-100,41,38,35,29.83,29.68,0,-999,0,0.00
2014-3-25,80,79,79,-100,-100,-100,40,38,38,29.84,29.76,0,-999,0,0.00
2014-3-26,79,79,78,-100,-100,-100,38,37,33,30.02,29.84,0,-999,0,0.00
2014-3-27,79,79,79,-100,-100,-100,38,37,37,30.01,29.89,0,-999,0,0.00
2014-3-28,81,80,79,-100,-100,-100,40,37,31,30.18,29.99,0,-999,0,0.00
2014-3-29,81,79,78,-100,-100,-100,36,35,31,30.23,30.11,0,-999,0,0.00
2014-3-30,91,80,78,-100,-100,-100,41,37,27,30.12,29.96,0,-999,0,0.00
2014-3-31,80,78,78,-100,-100,-100,37,34,31,29.96,29.88,0,-999,0,0.00
2014-4-1,80,79,79,-100,-100,-100,39,37,36,29.94,29.86,0,-999,0,0.00
2014-4-2,80,79,79,-100,-100,-100,38,37,35,29.90,29.74,0,-999,0,0.00
2014-4-3,80,80,80,-100,-100,-100,43,39,36,29.75,29.65,0,-999,0,0.00
2014-4-4,80,80,78,-100,-100,-100,43,41,39,29.82,29.70,0,-999,0,0.00
2014-4-5,80,80,80,-100,-100,-100,46,40,39,29.98,29.81,0,-999,0,0.00
2014-4-6,80,80,80,-100,-100,-100,47,44,41,30.07,29.98,0,-999,0,0.00
2014-4-7,80,80,80,-100,-100,-100,45,42,38,30.10,29.95,0,-999,0,0.00
2014-4-8,80,79,79,-100,-100,-100,44,41,37,30.05,29.88,0,-999,0,0.00
2014-4-9,80,79,78,-100,-100,-100,42,36,30,30.14,30.06,0,-999,0,0.00
2014-4-10,79,79,78,-100,-100,-100,40,36,32,30.15,30.00,0,-999,0,0.00
2014-4-11,80,79,79,-100,-100,-100,40,37,33,30.14,30.02,0,-999,0,0.00
2014-4-12,81,80,79,-100,-100,-100,43,39,33,30.06,29.96,0,-999,0,0.00
2014-4-13,80,79,79,-100,-100,-100,40,37,34,30.01,29.92,0,-999,0,0.00
2014-4-14,80,79,78,-100,-100,-100,40,36,29,29.95,29.79,0,-999,0,0.00
2014-4-15,80,79,78,-100,-100,-100,39,37,32,30.18,29.91,0,-999,0,0.00
2014-4-16,80,79,78,-100,-100,-100,39,35,30,30.36,30.18,0,-999,0,0.00
2014-4-17,80,79,78,-100,-100,-100,36,33,25,30.36,29.95,0,-999,0,0.00
2014-4-18,80,79,78,-100,-100,-100,42,36,27,29.95,29.79,0,-999,0,0.00
2014-4-19,79,78,78,-100,-100,-100,38,37,37,29.95,29.82,0,-999,0,0.00
2014-4-20,80,79,79,-100,-100,-100,43,38,37,29.84,29.75,0,-999,0,0.00
2014-4-21,80,79,78,-100,-100,-100,43,39,36,29.78,29.67,0,-999,0,0.00
2014-4-22,80,79,79,-100,-100,-100,44,40,38,29.98,29.73,0,-999,0,0.00
2014-4-23,80,79,79,-100,-100,-100,45,42,39,30.09,29.98,0,-999,0,0.00
2014-4-24,81,80,80,-100,-100,-100,48,45,42,30.09,30.00,0,-999,0,0.00
2014-4-25,82,81,80,-100,-100,-100,50,44,40,30.00,29.85,0,-999,0,0.00
2014-4-26,82,81,80,-100,-100,-100,50,45,43,29.90,29.76,0,-999,0,0.00
2014-4-27,82,82,81,-100,-100,-100,50,44,40,29.76,29.64,0,-999,0,0.00
2014-4-28,82,82,81,-100,-100,-100,50,45,42,29.82,29.71,0,-999,0,0.00
2014-4-29,82,81,80,-100,-100,-100,48,43,41,29.86,29.78,0,-999,0,0.00
2014-4-30,82,81,80,-100,-100,-100,44,40,36,29.81,29.74,0,-999,0,0.00
2014-5-1,82,81,81,-100,-100,-100,44,42,36,29.82,29.77,0,-999,0,0.00
2014-5-2,82,81,80,-100,-100,-100,49,42,37,30.00,29.78,0,-999,0,0.00
2014-5-3,81,80,79,-100,-100,-100,42,39,31,30.14,29.98,0,-999,0,0.00
2014-5-4,80,80,79,-100,-100,-100,45,40,34,30.15,30.10,0,-999,0,0.00
2014-5-5,80,80,79,-100,-100,-100,43,38,31,30.14,30.01,0,-999,0,0.00
2014-5-6,81,80,78,-100,-100,-100,43,39,35,30.04,29.85,0,-999,0,0.00
2014-5-7,80,80,79,-100,-100,-100,44,41,40,29.93,29.82,0,-999,0,0.00
2014-5-8,81,80,80,-100,-100,-100,46,42,40,29.99,29.88,0,-999,0,0.00
2014-5-9,81,80,79,-100,-100,-100,46,42,38,29.93,29.84,0,-999,0,0.00
2014-5-10,80,80,79,-100,-100,-100,43,38,33,30.01,29.75,0,-999,0,0.00
2014-5-11,81,80,80,-100,-100,-100,40,38,33,29.75,29.67,0,-999,0,0.00
2014-5-12,80,79,78,-100,-100,-100,40,35,29,29.85,29.75,0,-999,0,0.00
2014-5-13,80,80,79,-100,-100,-100,40,37,32,30.02,29.85,0,-999,0,0.00
2014-5-14,80,80,79,-100,-100,-100,42,38,32,30.27,30.01,0,-999,0,0.00
2014-5-15,80,79,79,-100,-100,-100,42,39,36,30.32,30.26,0,-999,0,0.00
2014-5-16,80,79,78,-100,-100,-100,45,38,31,30.28,30.12,0,-999,0,0.00
2014-5-17,79,79,78,-100,-100,-100,48,43,39,30.13,29.90,0,-999,0,0.00
2014-5-18,80,80,79,-100,-100,-100,48,45,42,29.91,29.87,0,-999,0,0.00
2014-5-19,80,80,79,-100,-100,-100,51,46,42,29.91,29.85,0,-999,0,0.00
2014-5-20,82,81,80,-100,-100,-100,51,48,45,29.98,29.91,0,-999,0,0.00
2014-5-21,82,81,81,-100,-100,-100,49,46,43,30.03,29.91,0,-999,0,0.00
2014-5-22,83,82,81,-100,-100,-100,51,45,39,29.91,29.79,0,-999,0,0.00
2014-5-23,83,82,82,-100,-100,-100,52,49,46,29.91,29.73,0,-999,0,0.00
2014-5-24,82,82,82,-100,-100,-100,52,50,49,30.05,29.84,0,-999,0,0.00
2014-5-25,83,82,82,-100,-100,-100,49,48,45,30.14,30.04,0,-999,0,0.00
2014-5-26,83,82,82,-100,-100,-100,49,46,42,30.08,29.84,0,-999,0,0.00
2014-5-27,83,82,82,-100,-100,-100,51,48,47,29.84,29.70,0,-999,0,0.00
2014-5-28,83,82,82,-100,-100,-100,50,48,45,29.83,29.68,0,-999,0,0.00
2014-5-29,83,82,81,-100,-100,-100,49,44,38,30.03,29.82,0,-999,0,0.00
2014-5-30,82,82,80,-100,-100,-100,46,43,37,30.12,30.03,0,-999,0,0.00
2014-5-31,82,81,80,-100,-100,-100,47,41,35,30.12,30.03,0,-999,0,0.00
2014-6-1,81,80,79,-100,-100,-100,42,38,35,30.08,30.04,0,-999,0,0.00
2014-6-2,81,80,80,-100,-100,-100,44,40,36,30.08,29.99,0,-999,0,0.00
2014-6-3,81,81,80,-100,-100,-100,46,41,35,30.00,29.91,0,-999,0,0.00
2014-6-4,81,81,80,-100,-100,-100,44,41,38,29.92,29.75,0,-999,0,0.00
2014-6-5,81,81,80,-100,-100,-100,43,41,39,30.06,29.79,0,-999,0,0.00
2014-6-6,82,81,81,-100,-100,-100,47,41,39,30.11,30.03,0,-999,0,0.00
2014-6-7,82,80,79,-100,-100,-100,49,41,37,30.09,30.02,0,-999,0,0.00
2014-6-8,83,81,80,-100,-100,-100,53,47,39,30.14,30.08,0,-999,0,0.00
2014-6-9,83,82,82,-100,-100,-100,54,50,47,30.12,30.04,0,-999,0,0.00
2014-6-10,83,83,82,-100,-100,-100,55,51,50,30.09,30.00,0,-999,0,0.00
2014-6-11,84,83,82,-100,-100,-100,56,54,49,30.20,30.05,0,-999,0,0.00
2014-6-12,84,83,80,-100,-100,-100,52,49,37,30.24,30.14,0,-999,0,0.00
2014-6-13,83,82,81,-100,-100,-100,44,41,35,30.17,29.98,0,-999,0,0.00
2014-6-14,83,82,82,-100,-100,-100,44,40,37,30.06,29.96,0,-999,0,0.00
2014-6-15,82,81,80,-100,-100,-100,44,38,35,30.11,30.06,0,-999,0,0.00
2014-6-16,82,81,81,-100,-100,-100,41,37,34,30.11,29.99,0,-999,0,0.00
2014-6-17,82,82,81,-100,-100,-100,41,39,37,30.08,30.02,0,-999,0,0.00
2014-6-18,82,82,82,-100,-100,-100,41,39,35,30.09,30.01,0,-999,0,0.00
2014-6-19,83,82,82,-100,-100,-100,42,38,35,30.03,29.88,0,-999,0,0.00
2014-6-20,83,82,81,-100,-100,-100,42,38,35,29.98,29.90,0,-999,0,0.00
2014-6-21,83,82,82,-100,-100,-100,44,38,34,30.02,29.98,0,-999,0,0.00
2014-6-22,82,81,81,-100,-100,-100,39,37,34,30.10,30.01,0,-999,0,0.00
2014-6-23,82,81,81,-100,-100,-100,40,37,35,30.13,30.01,0,-999,0,0.00
2014-6-24,81,81,81,-100,-100,-100,43,38,36,30.04,29.91,0,-999,0,0.00
2014-6-25,81,81,80,-100,-100,-100,46,41,39,29.94,29.79,0,-999,0,0.00
2014-6-26,81,80,80,-100,-100,-100,42,41,40,30.01,29.89,0,-999,0,0.00
2014-6-27,81,80,78,-100,-100,-100,41,39,37,30.04,29.96,0,-999,0,0.00
2014-6-28,81,81,80,-100,-100,-100,41,41,40,29.97,29.79,0,-999,0,0.00
2014-6-29,81,81,81,-100,-100,-100,42,41,41,29.81,29.74,0,-999,0,0.00
2014-6-30,81,81,81,-100,-100,-100,43,42,42,29.99,29.80,0,-999,0,0.00
2014-7-1,81,81,81,-100,-100,-100,44,43,42,30.07,29.99,0,-999,0,0.00
2014-7-2,82,81,81,-100,-100,-100,43,43,40,30.19,30.05,0,-999,0,0.00
2014-7-3,82,81,81,-100,-100,-100,41,40,40,30.25,30.14,0,-999,0,0.00
2014-7-4,82,82,81,-100,-100,-100,42,41,40,30.15,29.80,0,-999,0,0.00
2014-7-5,82,82,81,-100,-100,-100,42,42,41,29.88,29.74,0,-999,0,0.00
2014-7-6,83,82,82,-100,-100,-100,45,42,42,29.94,29.85,0,-999,0,0.00
2014-7-7,84,83,82,-100,-100,-100,50,45,38,29.96,29.86,0,-999,0,0.00
2014-7-8,84,84,83,-100,-100,-100,50,48,47,29.87,29.58,0,-999,0,0.00
2014-7-9,84,83,83,-100,-100,-100,48,47,46,29.74,29.58,0,-999,0,0.00
2014-7-10,83,83,83,-100,0,200,46,45,43,29.83,29.71,0,0,0,0.00
2014-7-11,83,82,82,-100,0,200,45,43,42,29.83,29.75,0,0,0,0.00
2014-7-12,84,83,82,-100,0,200,48,46,45,29.85,29.79,0,0,0,0.00
2014-7-13,83,83,82,-100,0,200,45,45,45,29.85,29.78,0,0,0,0.00
2014-7-14,83,82,82,-100,0,200,46,45,42,30.00,29.82,0,0,0,0.00
2014-7-15,83,83,82,-100,0,200,51,48,44,30.13,30.00,0,0,0,0.00
2014-7-16,83,83,82,-100,0,200,54,50,47,30.14,30.09,0,0,0,0.00
2014-7-17,84,83,81,-100,0,200,55,51,48,30.16,30.10,0,0,0,0.00
2014-7-18,84,83,80,-100,0,200,54,51,44,30.13,30.04,0,0,0,0.00
2014-7-19,84,83,80,-100,0,200,55,51,46,30.06,29.92,0,0,0,0.00
2014-7-20,84,83,82,-100,0,200,56,50,47,29.93,29.73,0,0,0,0.00
2014-7-21,85,84,83,-100,0,200,56,53,46,29.84,29.72,0,0,0,0.00
2014-7-22,85,84,84,-100,0,200,56,51,41,29.97,29.80,0,0,0,0.00
2014-7-23,85,83,82,-100,0,200,49,43,39,30.00,29.94,0,0,0,0.00
2014-7-24,85,84,83,-100,0,200,51,45,42,29.96,29.87,0,0,0,0.00
2014-7-25,85,84,83,-100,0,200,48,45,42,29.93,29.86,0,0,0,0.00
2014-7-26,85,85,85,-100,0,200,47,46,46,29.94,29.91,0,0,0,0.00
2014-7-28,86,86,86,-100,0,200,50,48,44,29.83,29.80,0,0,0,0.00
2014-7-29,86,85,84,-100,0,200,52,50,47,29.80,29.70,0,0,0,0.00
2014-7-30,86,85,84,-100,0,200,53,50,45,29.82,29.70,0,0,0,0.00
2014-7-31,86,85,85,-100,0,200,50,50,49,29.96,29.82,0,0,0,0.00
2014-8-1,86,86,86,-100,0,200,49,48,48,29.97,29.87,0,0,0,0.00
2014-8-2,87,86,85,-100,0,200,48,48,41,29.88,29.72,0,0,0,0.00
2014-8-3,86,85,84,-100,0,200,55,49,44,29.88,29.76,0,0,0,0.00
2014-8-4,85,84,84,-100,0,200,53,50,47,29.99,29.88,0,0,0,0.00
2014-8-5,84,84,80,-100,0,200,51,48,46,30.05,29.97,0,0,0,0.00
2014-8-6,85,84,82,-100,0,200,51,47,44,30.06,29.96,0,0,0,0.00
2014-8-7,85,84,84,-100,0,200,48,45,43,30.00,29.93,0,0,0,0.00
2014-8-8,85,84,82,-100,0,200,51,46,41,29.99,29.88,0,0,0,0.00
2014-8-9,85,84,82,-100,0,200,48,44,40,29.98,29.83,0,0,0,0.00
2014-8-10,84,84,82,-100,0,200,52,46,44,29.98,29.77,0,0,0,0.00
2014-8-11,85,84,84,-100,0,200,53,50,48,29.96,29.75,0,0,0,0.00
2014-8-12,84,84,83,-100,0,200,48,43,38,29.98,29.89,0,0,0,0.00
2014-8-13,84,83,82,-100,0,200,48,43,40,29.91,29.65,0,0,0,0.00
2014-8-14,84,83,82,-100,0,200,48,44,40,29.89,29.70,0,0,0,0.00
2014-8-15,83,82,82,-100,0,200,45,42,40,29.92,29.86,0,0,0,0.00
2014-8-16,84,83,82,-100,0,200,44,42,40,30.03,29.92,0,0,0,0.00
2014-8-17,82,82,81,-100,0,200,43,41,39,30.03,29.84,0,0,0,0.00
2014-8-18,82,82,81,-100,0,200,42,40,38,29.85,29.75,0,0,0,0.00
2014-8-19,82,81,81,-100,0,200,42,40,37,29.91,29.84,0,0,0,0.00
2014-8-20,82,81,80,-100,0,200,42,38,33,30.01,29.89,0,0,0,0.00
2014-8-21,81,80,79,-100,0,200,41,37,33,30.01,29.96,0,0,0,0.00
2014-8-22,81,80,80,-100,0,200,42,38,36,30.01,29.89,0,0,0,0.00
2014-8-23,80,80,79,-100,0,200,42,39,36,29.95,29.87,0,0,0,0.00
2014-8-24,81,80,80,-100,0,200,42,39,35,30.08,29.92,0,0,0,0.00
2014-8-25,80,80,79,-100,0,200,42,38,37,30.08,29.87,0,0,0,0.00
2014-8-26,80,80,79,-100,0,200,47,41,36,29.87,29.70,0,0,0,0.00
2014-8-27,81,80,80,-100,0,200,45,44,40,30.05,29.76,0,0,0,0.00
2014-8-28,82,81,80,-100,0,200,45,42,40,30.10,30.02,0,0,0,0.00
2014-8-29,82,81,80,-100,0,200,48,43,40,30.06,29.97,0,0,0,0.00
2014-8-30,81,80,80,-100,0,200,47,46,45,30.05,29.99,0,0,0,0.00
2014-8-31,80,80,80,-100,0,200,49,45,45,30.02,29.86,0,0,0,0.00
2014-9-1,81,80,80,-100,0,200,50,47,45,30.06,29.90,0,0,0,0.00
2014-9-2,80,80,79,-100,0,200,51,49,45,30.15,30.03,0,0,0,0.00
2014-9-3,80,80,80,-100,0,200,51,49,46,30.16,30.11,0,0,0,0.00
2014-9-4,81,80,80,-100,0,200,57,49,45,30.15,30.05,0,0,0,0.00
2014-9-5,81,81,80,-100,0,200,55,52,50,30.07,29.92,0,0,0,0.00
2014-9-6,82,81,81,-100,0,200,54,53,50,29.94,29.86,0,0,0,0.00
2014-9-7,82,82,81,-100,0,200,58,52,50,29.96,29.90,0,0,0,0.00
2014-9-8,82,82,81,-100,0,200,56,52,51,30.02,29.95,0,0,0,0.00
2014-9-9,82,82,81,-100,0,200,54,51,48,30.04,29.99,0,0,0,0.00
2014-9-10,82,81,81,-100,0,200,49,46,43,30.05,29.97,0,0,0,0.00
2014-9-11,82,81,81,-100,0,200,50,47,44,29.98,29.90,0,0,0,0.00
2014-9-12,82,81,81,-100,0,200,57,50,48,30.03,29.81,0,0,0,0.00
2014-9-13,82,81,80,-100,0,200,59,53,51,30.07,30.03,0,0,0,0.00
2014-9-14,81,80,80,-100,0,200,57,54,51,30.06,30.00,0,0,0,0.00
2014-9-15,81,81,80,-100,0,200,56,55,53,30.06,30.01,0,0,0,0.00
2014-9-16,81,81,80,-100,0,200,56,54,50,30.07,30.01,0,0,0,0.00
2014-9-17,81,81,80,-100,0,200,55,52,47,30.05,29.96,0,0,0,0.00
2014-9-18,81,80,80,-100,0,200,52,51,47,29.99,29.94,0,0,0,0.00
2014-9-19,81,80,80,-100,0,200,53,50,48,30.00,29.91,0,0,0,0.00
2014-9-20,81,81,80,-100,0,200,57,54,53,29.96,29.90,0,0,0,0.00
2014-9-21,81,80,80,-100,0,200,55,54,50,29.93,29.82,0,0,0,0.00
2014-9-22,81,80,79,-100,0,200,55,47,42,29.94,29.83,0,0,0,0.00
2014-9-23,80,79,79,-100,0,200,49,45,39,30.11,29.93,0,0,0,0.00
2014-9-24,80,79,78,-100,0,200,47,43,39,30.10,29.85,0,0,0,0.00
2014-9-25,79,79,78,-100,0,200,48,45,43,30.12,29.85,0,0,0,0.00
2014-9-26,79,78,78,-100,0,200,50,46,43,30.20,30.11,0,0,0,0.00
2014-9-27,80,79,79,-100,0,200,55,52,50,30.37,30.20,0,0,0,0.00
2014-9-28,80,79,78,-100,0,200,53,49,43,30.38,30.26,0,0,0,0.00
2014-9-29,79,79,78,-100,0,200,53,50,47,30.30,30.22,0,0,0,0.00
2014-9-30,79,79,78,-100,0,200,53,52,50,30.26,30.23,0,0,0,0.00
2014-10-1,80,79,79,-100,0,200,57,53,51,30.32,30.25,0,0,0,0.00
2014-10-2,80,79,79,-100,0,200,56,54,51,30.37,30.32,0,0,0,0.00
2014-10-3,79,79,79,-100,0,200,53,52,52,30.35,30.25,0,0,0,0.00
2014-10-4,79,78,78,-100,0,200,52,51,51,30.25,30.10,0,0,0,0.00
2014-10-5,78,78,78,-100,0,200,51,50,50,30.10,30.04,0,0,0,0.00
2014-10-6,78,78,78,-100,0,200,51,49,45,30.04,29.93,0,0,0,0.00
2014-10-7,78,78,77,-100,0,200,54,48,44,29.93,29.87,0,0,0,0.00
2014-10-8,79,78,78,-100,0,200,55,52,47,29.98,29.88,0,0,0,0.00
2014-10-9,79,78,78,-100,0,200,55,52,50,29.92,29.86,0,0,0,0.00
2014-10-10,79,78,78,-100,0,200,58,53,51,30.05,29.92,0,0,0,0.00
2014-10-11,80,80,79,-100,0,200,58,56,52,30.01,29.91,0,0,0,0.00
2014-10-12,80,79,79,-100,0,200,56,54,49,30.02,29.90,0,0,0,0.00
2014-10-13,79,79,78,-100,0,200,55,52,48,29.90,29.75,0,0,0,0.00
2014-10-14,79,79,79,-100,0,200,55,52,50,29.84,29.72,0,0,0,0.00
2014-10-15,79,78,78,-100,0,200,54,50,47,29.83,29.75,0,0,0,0.00
2014-10-16,78,78,77,-100,0,200,54,49,45,29.80,29.73,0,0,0,0.00
2014-10-17,78,77,77,-100,0,200,58,50,47,30.10,29.77,0,0,0,0.00
2014-10-18,79,78,78,-100,0,200,53,50,47,30.27,30.10,0,0,0,0.00
2014-10-19,80,79,78,-100,0,200,56,52,48,30.24,30.02,0,0,0,0.00
2014-10-20,80,79,78,-100,0,200,53,51,48,30.02,29.93,0,0,0,0.00